AAL46 KLAX-KDEN

Flight info

Callsign AAL46
Flight time 2h 15m
Altitude 39000
Route OSHNN1 BEALE J146 DICEE BUMMP SSKII4
Aircraft B772/H-SDE2E3FGHIJ5LORVWXY/LB1D1

Departure

Time 2026-04-26 05:07
Airport Los Angeles International Airport (KLAX)

Arrival

Time 2026-04-26 07:22
Airport Denver International Airport (KDEN)
Time Latitude Longitude Altitude Speed Heading
2026-04-26 04:30 33.94163 -118.40757 138 ft 0 kts 83°
2026-04-26 04:50 33.94162 -118.40766 138 ft 1 kts 82°
2026-04-26 04:50 33.94160 -118.40783 138 ft 2 kts 83°
2026-04-26 04:50 33.94158 -118.40801 138 ft 2 kts 84°
2026-04-26 04:51 33.94158 -118.40820 138 ft 2 kts 102°
2026-04-26 04:51 33.94163 -118.40836 137 ft 2 kts 115°
2026-04-26 04:51 33.94170 -118.40852 138 ft 2 kts 129°
2026-04-26 04:51 33.94173 -118.40855 138 ft 0 kts 133°
2026-04-26 04:52 33.94159 -118.40844 138 ft 3 kts 158°
2026-04-26 04:52 33.94146 -118.40842 138 ft 0 kts 175°
2026-04-26 04:58 33.94142 -118.40841 138 ft 1 kts 175°
2026-04-26 04:58 33.94122 -118.40839 138 ft 4 kts 174°
2026-04-26 04:58 33.94076 -118.40833 138 ft 8 kts 171°
2026-04-26 04:59 33.94007 -118.40819 139 ft 11 kts 174°
2026-04-26 04:59 33.93926 -118.40803 139 ft 6 kts 164°
2026-04-26 04:59 33.93879 -118.40768 141 ft 8 kts 143°
2026-04-26 04:59 33.93828 -118.40717 142 ft 10 kts 121°
2026-04-26 05:00 33.93816 -118.40609 140 ft 15 kts 83°
2026-04-26 05:00 33.93832 -118.40458 137 ft 20 kts 83°
2026-04-26 05:00 33.93849 -118.40299 133 ft 20 kts 83°
2026-04-26 05:00 33.93865 -118.40128 130 ft 21 kts 83°
2026-04-26 05:01 33.93883 -118.39956 128 ft 22 kts 83°
2026-04-26 05:01 33.93903 -118.39764 126 ft 25 kts 83°
2026-04-26 05:01 33.93926 -118.39540 121 ft 29 kts 84°
2026-04-26 05:01 33.93951 -118.39300 118 ft 24 kts 83°
2026-04-26 05:02 33.93967 -118.39134 116 ft 20 kts 83°
2026-04-26 05:02 33.93985 -118.38957 115 ft 23 kts 83°
2026-04-26 05:02 33.94001 -118.38799 114 ft 19 kts 83°
2026-04-26 05:02 33.94014 -118.38670 113 ft 14 kts 83°
2026-04-26 05:03 33.94028 -118.38536 112 ft 17 kts 84°
2026-04-26 05:03 33.94036 -118.38458 112 ft 7 kts 82°
2026-04-26 05:03 33.94042 -118.38398 112 ft 5 kts 83°
2026-04-26 05:03 33.94049 -118.38335 111 ft 10 kts 84°
2026-04-26 05:04 33.94059 -118.38232 111 ft 14 kts 83°
2026-04-26 05:04 33.94074 -118.38094 110 ft 18 kts 84°
2026-04-26 05:04 33.94056 -118.38021 109 ft 7 kts 142°
2026-04-26 05:04 33.93995 -118.38010 109 ft 10 kts 219°
2026-04-26 05:05 33.93976 -118.38084 109 ft 0 kts 265°
2026-04-26 05:06 33.93957 -118.38281 111 ft 68 kts 263°
2026-04-26 05:07 33.93861 -118.39238 141 ft 158 kts 263°
2026-04-26 05:07 33.93720 -118.40623 940 ft 173 kts 262°
2026-04-26 05:07 33.93572 -118.42038 1892 ft 174 kts 262°
2026-04-26 05:07 33.93420 -118.43497 2582 ft 184 kts 263°
2026-04-26 05:08 33.93233 -118.45062 3255 ft 195 kts 256°
2026-04-26 05:08 33.92678 -118.46571 3914 ft 208 kts 238°
2026-04-26 05:08 33.91775 -118.47990 4585 ft 220 kts 233°
2026-04-26 05:08 33.90788 -118.49486 4937 ft 234 kts 233°
2026-04-26 05:09 33.89725 -118.51000 4964 ft 233 kts 231°
2026-04-26 05:09 33.88679 -118.52476 4967 ft 233 kts 232°
2026-04-26 05:09 33.87617 -118.53982 4964 ft 233 kts 231°
2026-04-26 05:09 33.86345 -118.55199 4962 ft 236 kts 211°
2026-04-26 05:10 33.84731 -118.55788 4958 ft 243 kts 189°
2026-04-26 05:10 33.83023 -118.55639 4965 ft 247 kts 173°
2026-04-26 05:10 33.81333 -118.55214 4968 ft 248 kts 171°
2026-04-26 05:10 33.79640 -118.54758 4967 ft 248 kts 171°
2026-04-26 05:11 33.77949 -118.54299 4969 ft 248 kts 171°
2026-04-26 05:11 33.76273 -118.53846 5244 ft 247 kts 171°
2026-04-26 05:11 33.74596 -118.53394 5733 ft 249 kts 171°
2026-04-26 05:11 33.73470 -118.53085 6064 ft 251 kts 169°
2026-04-26 05:12 33.71304 -118.51952 6729 ft 260 kts 151°
2026-04-26 05:12 33.69856 -118.50526 7244 ft 276 kts 137°
2026-04-26 05:12 33.68698 -118.48636 7752 ft 284 kts 121°
2026-04-26 05:12 33.67946 -118.46436 8255 ft 287 kts 110°
2026-04-26 05:13 33.67332 -118.44159 8757 ft 291 kts 110°
2026-04-26 05:13 33.66675 -118.41822 9273 ft 297 kts 111°
2026-04-26 05:13 33.65991 -118.39477 9784 ft 301 kts 112°
2026-04-26 05:13 33.65282 -118.37082 10291 ft 309 kts 112°
2026-04-26 05:14 33.64684 -118.34589 10796 ft 316 kts 103°
2026-04-26 05:14 33.64443 -118.31934 11295 ft 323 kts 93°
2026-04-26 05:14 33.64440 -118.29209 11796 ft 330 kts 91°
2026-04-26 05:14 33.64453 -118.26430 12293 ft 332 kts 91°
2026-04-26 05:15 33.64643 -118.23619 12792 ft 349 kts 81°
2026-04-26 05:15 33.65253 -118.20752 13297 ft 354 kts 70°
2026-04-26 05:15 33.66285 -118.18028 13801 ft 359 kts 58°
2026-04-26 05:15 33.67706 -118.15565 14298 ft 363 kts 47°
2026-04-26 05:16 33.69531 -118.13380 14811 ft 369 kts 35°
2026-04-26 05:16 33.71653 -118.11452 15345 ft 383 kts 32°
2026-04-26 05:16 33.73830 -118.09530 15876 ft 398 kts 32°
2026-04-26 05:16 33.76131 -118.07488 16402 ft 413 kts 32°
2026-04-26 05:17 33.78525 -118.05354 16940 ft 426 kts 32°
2026-04-26 05:17 33.80896 -118.03232 17447 ft 427 kts 32°
2026-04-26 05:17 33.83253 -118.01118 17949 ft 431 kts 32°
2026-04-26 05:17 33.85703 -117.98918 18468 ft 441 kts 32°
2026-04-26 05:18 33.88264 -117.96619 19002 ft 450 kts 33°
2026-04-26 05:18 33.90803 -117.94333 19528 ft 453 kts 33°
2026-04-26 05:18 33.93374 -117.91995 20058 ft 460 kts 33°
2026-04-26 05:18 33.95970 -117.89622 20584 ft 464 kts 33°
2026-04-26 05:19 33.98581 -117.87234 21111 ft 471 kts 33°
2026-04-26 05:19 34.01239 -117.84800 21659 ft 472 kts 33°
2026-04-26 05:19 34.03864 -117.82394 22173 ft 477 kts 33°
2026-04-26 05:19 34.06521 -117.79960 22655 ft 482 kts 33°
2026-04-26 05:20 34.09137 -117.77252 23138 ft 491 kts 42°
2026-04-26 05:20 34.11360 -117.74228 23605 ft 496 kts 48°
2026-04-26 05:20 34.13446 -117.71142 24022 ft 499 kts 49°
2026-04-26 05:20 34.15568 -117.67982 24432 ft 507 kts 49°
2026-04-26 05:21 34.17790 -117.64671 24873 ft 508 kts 49°
2026-04-26 05:21 34.20013 -117.61359 25319 ft 513 kts 49°
2026-04-26 05:21 34.22277 -117.57986 25763 ft 516 kts 49°
2026-04-26 05:21 34.24389 -117.54836 26177 ft 521 kts 49°
2026-04-26 05:22 34.26527 -117.51647 26593 ft 524 kts 49°
2026-04-26 05:22 34.28649 -117.48480 27003 ft 529 kts 49°
2026-04-26 05:22 34.30835 -117.45217 27421 ft 532 kts 49°
2026-04-26 05:22 34.33054 -117.41900 27798 ft 537 kts 49°
2026-04-26 05:23 34.35385 -117.38412 28170 ft 539 kts 49°
2026-04-26 05:23 34.37710 -117.34931 28541 ft 542 kts 50°
2026-04-26 05:23 34.39934 -117.31598 28878 ft 544 kts 50°
2026-04-26 05:23 34.42127 -117.28309 29200 ft 548 kts 50°
2026-04-26 05:24 34.44316 -117.25023 29530 ft 555 kts 50°
2026-04-26 05:24 34.46524 -117.21706 29863 ft 556 kts 50°
2026-04-26 05:24 34.48761 -117.18340 30187 ft 560 kts 50°
2026-04-26 05:24 34.51006 -117.14960 30516 ft 562 kts 51°
2026-04-26 05:25 34.53264 -117.11558 30828 ft 562 kts 50°
2026-04-26 05:25 34.55518 -117.08180 31154 ft 559 kts 49°
2026-04-26 05:25 34.57798 -117.04858 31477 ft 557 kts 49°
2026-04-26 05:25 34.60107 -117.01506 31786 ft 558 kts 49°
2026-04-26 05:26 34.62395 -116.98182 32111 ft 559 kts 50°
2026-04-26 05:26 34.64660 -116.94885 32434 ft 559 kts 49°
2026-04-26 05:26 34.66970 -116.91518 32766 ft 559 kts 49°
2026-04-26 05:26 34.69281 -116.88145 33110 ft 558 kts 49°
2026-04-26 05:27 34.71611 -116.84738 33427 ft 555 kts 49°
2026-04-26 05:27 34.73909 -116.81375 33761 ft 554 kts 49°
2026-04-26 05:27 34.76210 -116.78005 34084 ft 555 kts 49°
2026-04-26 05:27 34.78549 -116.74574 34413 ft 556 kts 50°
2026-04-26 05:28 34.80857 -116.71184 34736 ft 555 kts 49°
2026-04-26 05:28 34.83181 -116.67770 35028 ft 554 kts 49°
2026-04-26 05:28 34.85487 -116.64377 35289 ft 556 kts 49°
2026-04-26 05:28 34.87911 -116.60987 35623 ft 556 kts 46°
2026-04-26 05:29 34.90434 -116.57640 35995 ft 556 kts 46°
2026-04-26 05:29 34.92930 -116.54336 36353 ft 555 kts 46°
2026-04-26 05:29 34.95415 -116.51039 36737 ft 554 kts 45°
2026-04-26 05:29 34.97915 -116.47713 37103 ft 556 kts 45°
2026-04-26 05:30 35.00406 -116.44391 37475 ft 556 kts 46°
2026-04-26 05:30 35.02910 -116.41043 37851 ft 556 kts 46°
2026-04-26 05:30 35.05411 -116.37693 38233 ft 555 kts 45°
2026-04-26 05:30 35.07913 -116.34337 38643 ft 555 kts 46°
2026-04-26 05:31 35.10394 -116.31005 38798 ft 558 kts 46°
2026-04-26 05:31 35.12896 -116.27640 38791 ft 558 kts 46°
2026-04-26 05:31 35.17773 -116.21067 38793 ft 554 kts 46°
2026-04-26 05:32 35.22574 -116.14581 38801 ft 555 kts 47°
2026-04-26 05:32 35.27354 -116.08112 38815 ft 555 kts 46°
2026-04-26 05:33 35.32106 -116.01666 38799 ft 552 kts 47°
2026-04-26 05:33 35.36813 -115.95271 38815 ft 554 kts 47°
2026-04-26 05:34 35.41566 -115.88799 38793 ft 554 kts 46°
2026-04-26 05:34 35.46351 -115.82272 38786 ft 554 kts 47°
2026-04-26 05:35 35.51104 -115.75776 38805 ft 552 kts 47°
2026-04-26 05:35 35.55958 -115.69128 38800 ft 555 kts 46°
2026-04-26 05:36 35.60772 -115.62522 38792 ft 553 kts 46°
2026-04-26 05:36 35.65568 -115.55927 38795 ft 552 kts 47°
2026-04-26 05:37 35.70320 -115.49383 38793 ft 553 kts 47°
2026-04-26 05:37 35.75116 -115.42761 38795 ft 555 kts 47°
2026-04-26 05:38 35.79951 -115.36073 38786 ft 552 kts 47°
2026-04-26 05:38 35.84780 -115.29379 38787 ft 551 kts 47°
2026-04-26 05:39 35.89572 -115.22724 38792 ft 553 kts 47°
2026-04-26 05:39 35.94417 -115.15982 38783 ft 552 kts 47°
2026-04-26 05:40 35.99216 -115.09290 38786 ft 552 kts 47°
2026-04-26 05:40 36.04038 -115.02553 38787 ft 551 kts 47°
2026-04-26 05:41 36.08873 -114.95784 38783 ft 553 kts 47°
2026-04-26 05:41 36.13627 -114.89116 38768 ft 550 kts 47°
2026-04-26 05:42 36.17973 -114.82025 38756 ft 553 kts 61°
2026-04-26 05:42 36.20915 -114.73879 38765 ft 551 kts 71°
2026-04-26 05:43 36.23483 -114.65512 38764 ft 551 kts 71°
2026-04-26 05:43 36.26042 -114.57121 38767 ft 554 kts 71°
2026-04-26 05:44 36.28608 -114.48683 38773 ft 550 kts 71°
2026-04-26 05:44 36.31147 -114.40307 38782 ft 552 kts 71°
2026-04-26 05:45 36.33717 -114.31798 38766 ft 553 kts 71°
2026-04-26 05:45 36.36240 -114.23425 38774 ft 550 kts 72°
2026-04-26 05:46 36.38779 -114.14970 38768 ft 553 kts 72°
2026-04-26 05:46 36.41293 -114.06574 38772 ft 551 kts 71°
2026-04-26 05:47 36.43822 -113.98101 38783 ft 553 kts 71°
2026-04-26 05:47 36.46325 -113.89690 38789 ft 552 kts 71°
2026-04-26 05:48 36.48839 -113.81218 38807 ft 553 kts 71°
2026-04-26 05:48 36.51336 -113.72778 38816 ft 550 kts 71°
2026-04-26 05:49 36.55058 -113.60148 38836 ft 553 kts 72°
2026-04-26 05:50 36.57536 -113.51709 38840 ft 551 kts 71°
2026-04-26 05:50 36.60012 -113.43248 38845 ft 552 kts 71°
2026-04-26 05:51 36.62472 -113.34820 38859 ft 551 kts 72°
2026-04-26 05:51 36.64935 -113.26342 38854 ft 551 kts 72°
2026-04-26 05:52 36.67390 -113.17866 38871 ft 549 kts 72°
2026-04-26 05:52 36.69780 -113.09585 38878 ft 552 kts 72°
2026-04-26 05:53 36.72172 -113.01273 38885 ft 551 kts 72°
2026-04-26 05:53 36.74552 -112.92980 38897 ft 550 kts 72°
2026-04-26 05:54 36.76933 -112.84656 38898 ft 551 kts 72°
2026-04-26 05:54 36.79318 -112.76296 38895 ft 551 kts 72°
2026-04-26 05:55 36.81676 -112.68002 38896 ft 552 kts 72°
2026-04-26 05:55 36.84058 -112.59599 38895 ft 552 kts 72°
2026-04-26 05:56 36.86436 -112.51181 38914 ft 552 kts 72°
2026-04-26 05:56 36.88798 -112.42797 38905 ft 551 kts 72°
2026-04-26 05:57 36.91132 -112.34459 38913 ft 552 kts 73°
2026-04-26 05:57 36.93472 -112.26104 38901 ft 552 kts 72°
2026-04-26 05:58 36.95825 -112.17687 38913 ft 553 kts 73°
2026-04-26 05:58 36.98148 -112.09350 38911 ft 550 kts 72°
2026-04-26 05:59 37.00445 -112.01077 38917 ft 553 kts 73°
2026-04-26 05:59 37.02760 -111.92715 38930 ft 552 kts 73°
2026-04-26 06:00 37.05048 -111.84425 38922 ft 551 kts 73°
2026-04-26 06:00 37.07334 -111.76112 38922 ft 554 kts 73°
2026-04-26 06:01 37.09617 -111.67787 38923 ft 552 kts 73°
2026-04-26 06:01 37.11886 -111.59486 38919 ft 554 kts 73°
2026-04-26 06:02 37.14171 -111.51102 38923 ft 555 kts 73°
2026-04-26 06:02 37.16433 -111.42773 38905 ft 553 kts 72°
2026-04-26 06:03 37.18701 -111.34396 38909 ft 556 kts 73°
2026-04-26 06:03 37.20982 -111.25946 38891 ft 555 kts 73°
2026-04-26 06:04 37.23735 -111.17809 38907 ft 558 kts 65°
2026-04-26 06:04 37.26928 -111.09818 38888 ft 557 kts 64°
2026-04-26 06:05 37.30108 -111.01849 38900 ft 558 kts 64°
2026-04-26 06:05 37.33297 -110.93827 38896 ft 557 kts 64°
2026-04-26 06:06 37.36473 -110.85809 38901 ft 556 kts 64°
2026-04-26 06:06 37.39631 -110.77811 38901 ft 558 kts 64°
2026-04-26 06:07 37.42790 -110.69791 38896 ft 556 kts 64°
2026-04-26 06:07 37.45949 -110.61747 38891 ft 555 kts 64°
2026-04-26 06:08 37.49089 -110.53729 38899 ft 556 kts 64°
2026-04-26 06:08 37.52212 -110.45735 38907 ft 555 kts 64°
2026-04-26 06:09 37.55332 -110.37728 38914 ft 552 kts 64°
2026-04-26 06:09 37.58458 -110.29682 38905 ft 554 kts 65°
2026-04-26 06:10 37.61543 -110.21725 38896 ft 552 kts 65°
2026-04-26 06:10 37.64640 -110.13712 38904 ft 552 kts 64°
2026-04-26 06:11 37.67704 -110.05767 38921 ft 552 kts 65°
2026-04-26 06:11 37.70786 -109.97755 38902 ft 550 kts 65°
2026-04-26 06:12 37.73857 -109.89747 38914 ft 553 kts 64°
2026-04-26 06:12 37.76919 -109.81745 38926 ft 553 kts 64°
2026-04-26 06:13 37.80022 -109.73615 38929 ft 554 kts 64°
2026-04-26 06:13 37.83098 -109.65531 38930 ft 553 kts 65°
2026-04-26 06:14 37.86170 -109.57440 38934 ft 556 kts 65°
2026-04-26 06:14 37.89246 -109.49316 38926 ft 555 kts 65°
2026-04-26 06:15 37.92319 -109.41177 38939 ft 556 kts 64°
2026-04-26 06:15 37.95385 -109.33038 38936 ft 557 kts 65°
2026-04-26 06:16 37.98422 -109.24952 38926 ft 555 kts 65°
2026-04-26 06:16 38.01477 -109.16795 38928 ft 557 kts 65°
2026-04-26 06:17 38.04517 -109.08659 38925 ft 557 kts 65°
2026-04-26 06:17 38.07563 -109.00485 38931 ft 556 kts 65°
2026-04-26 06:18 38.10595 -108.92340 38928 ft 555 kts 64°
2026-04-26 06:18 38.13765 -108.84274 38943 ft 555 kts 63°
2026-04-26 06:19 38.16935 -108.76245 38951 ft 555 kts 63°
2026-04-26 06:19 38.20097 -108.68198 38962 ft 554 kts 63°
2026-04-26 06:20 38.23248 -108.60152 38973 ft 553 kts 63°
2026-04-26 06:20 38.26429 -108.52000 38987 ft 555 kts 63°
2026-04-26 06:21 38.29566 -108.43938 38986 ft 553 kts 63°
2026-04-26 06:21 38.32704 -108.35847 38988 ft 554 kts 63°
2026-04-26 06:22 38.35838 -108.27746 38978 ft 552 kts 63°
2026-04-26 06:22 38.38982 -108.19598 38978 ft 556 kts 64°
2026-04-26 06:23 38.42081 -108.11543 38985 ft 554 kts 63°
2026-04-26 06:23 38.45187 -108.03449 39008 ft 554 kts 63°
2026-04-26 06:24 38.48245 -107.95416 38966 ft 554 kts 64°
2026-04-26 06:24 38.51303 -107.87317 38950 ft 553 kts 64°
2026-04-26 06:25 38.54420 -107.79043 38983 ft 552 kts 63°
2026-04-26 06:25 38.57609 -107.70554 38537 ft 559 kts 63°
2026-04-26 06:25 38.59229 -107.66234 38172 ft 555 kts 64°
2026-04-26 06:26 38.60825 -107.61970 37817 ft 551 kts 63°
2026-04-26 06:26 38.62388 -107.57790 37466 ft 548 kts 64°
2026-04-26 06:26 38.63953 -107.53599 37114 ft 550 kts 64°
2026-04-26 06:26 38.65543 -107.49337 36738 ft 551 kts 64°
2026-04-26 06:27 38.67120 -107.45150 36350 ft 550 kts 63°
2026-04-26 06:27 38.68716 -107.40944 36016 ft 548 kts 63°
2026-04-26 06:27 38.70301 -107.36762 35703 ft 547 kts 63°
2026-04-26 06:27 38.71887 -107.32572 35381 ft 549 kts 64°
2026-04-26 06:28 38.73492 -107.28324 35052 ft 549 kts 64°
2026-04-26 06:28 38.75088 -107.24093 34730 ft 548 kts 64°
2026-04-26 06:28 38.76654 -107.19933 34400 ft 548 kts 64°
2026-04-26 06:28 38.78250 -107.15688 34033 ft 548 kts 64°
2026-04-26 06:29 38.79847 -107.11435 33646 ft 548 kts 64°
2026-04-26 06:29 38.81428 -107.07220 33267 ft 547 kts 64°
2026-04-26 06:29 38.83012 -107.02986 32875 ft 547 kts 64°
2026-04-26 06:29 38.84585 -106.98780 32494 ft 546 kts 64°
2026-04-26 06:30 38.86154 -106.94576 32133 ft 546 kts 65°
2026-04-26 06:30 38.87720 -106.90376 31758 ft 545 kts 65°
2026-04-26 06:30 38.89312 -106.86098 31376 ft 545 kts 65°
2026-04-26 06:30 38.90881 -106.81875 31004 ft 543 kts 65°
2026-04-26 06:31 38.92451 -106.77645 30626 ft 538 kts 65°
2026-04-26 06:31 38.94024 -106.73403 30252 ft 532 kts 65°
2026-04-26 06:31 38.95569 -106.69226 29865 ft 528 kts 65°
2026-04-26 06:31 38.97118 -106.65034 29480 ft 525 kts 65°
2026-04-26 06:32 38.98656 -106.60867 29088 ft 522 kts 65°
2026-04-26 06:32 39.00196 -106.56686 28712 ft 519 kts 65°
2026-04-26 06:32 39.01690 -106.52612 28336 ft 516 kts 65°
2026-04-26 06:32 39.03191 -106.48510 27955 ft 513 kts 65°
2026-04-26 06:33 39.04674 -106.44453 27580 ft 510 kts 65°
2026-04-26 06:33 39.06160 -106.40382 27204 ft 507 kts 65°
2026-04-26 06:33 39.07547 -106.36573 26989 ft 503 kts 65°
2026-04-26 06:33 39.08934 -106.32764 26559 ft 500 kts 65°
2026-04-26 06:34 39.10271 -106.29088 26086 ft 494 kts 65°
2026-04-26 06:34 39.11580 -106.25483 25610 ft 489 kts 65°
2026-04-26 06:34 39.12899 -106.21845 25121 ft 484 kts 65°
2026-04-26 06:34 39.14192 -106.18276 24640 ft 480 kts 65°
2026-04-26 06:35 39.15482 -106.14711 24155 ft 475 kts 65°
2026-04-26 06:35 39.16783 -106.11098 23663 ft 471 kts 65°
2026-04-26 06:35 39.18069 -106.07523 23190 ft 466 kts 65°
2026-04-26 06:35 39.19360 -106.03926 23005 ft 454 kts 65°
2026-04-26 06:36 39.20618 -106.00419 22983 ft 438 kts 65°
2026-04-26 06:36 39.21802 -105.97111 22991 ft 431 kts 65°
2026-04-26 06:36 39.22915 -105.94003 22996 ft 435 kts 65°
2026-04-26 06:36 39.24036 -105.90870 22769 ft 439 kts 65°
2026-04-26 06:37 39.25148 -105.87781 22362 ft 438 kts 65°
2026-04-26 06:37 39.26276 -105.84654 21934 ft 436 kts 65°
2026-04-26 06:37 39.27401 -105.81533 21506 ft 433 kts 65°
2026-04-26 06:37 39.28547 -105.78347 21108 ft 430 kts 65°
2026-04-26 06:38 39.29643 -105.75298 20856 ft 423 kts 65°
2026-04-26 06:38 39.30732 -105.72266 20449 ft 420 kts 65°
2026-04-26 06:38 39.31814 -105.69247 20027 ft 419 kts 65°
2026-04-26 06:38 39.32903 -105.66215 19599 ft 417 kts 65°
2026-04-26 06:39 39.34007 -105.63191 19170 ft 415 kts 65°
2026-04-26 06:39 39.35122 -105.60142 18732 ft 413 kts 65°
2026-04-26 06:39 39.36207 -105.57172 18303 ft 411 kts 65°
2026-04-26 06:39 39.37387 -105.53938 17834 ft 409 kts 65°
2026-04-26 06:40 39.38553 -105.50738 17366 ft 406 kts 66°
2026-04-26 06:40 39.39666 -105.47681 17050 ft 399 kts 65°
2026-04-26 06:40 39.40744 -105.44714 17012 ft 385 kts 66°
2026-04-26 06:40 39.41829 -105.41986 17013 ft 371 kts 58°
2026-04-26 06:41 39.43098 -105.39549 16985 ft 359 kts 55°
2026-04-26 06:41 39.44346 -105.37243 16632 ft 359 kts 55°
2026-04-26 06:41 39.45645 -105.34849 16204 ft 360 kts 56°
2026-04-26 06:41 39.46923 -105.32497 15769 ft 362 kts 56°
2026-04-26 06:42 39.48207 -105.30130 15323 ft 363 kts 56°
2026-04-26 06:42 39.49472 -105.27799 15061 ft 358 kts 56°
2026-04-26 06:42 39.50733 -105.25473 15014 ft 346 kts 56°
2026-04-26 06:42 39.51935 -105.23254 15004 ft 333 kts 56°
2026-04-26 06:43 39.53108 -105.21086 15015 ft 331 kts 56°
2026-04-26 06:43 39.54236 -105.18846 15005 ft 335 kts 62°
2026-04-26 06:43 39.55190 -105.16396 15000 ft 332 kts 65°
2026-04-26 06:43 39.56101 -105.13892 14965 ft 332 kts 66°
2026-04-26 06:44 39.56993 -105.11431 14981 ft 332 kts 66°
2026-04-26 06:44 39.57884 -105.08984 14969 ft 333 kts 66°
2026-04-26 06:44 39.58783 -105.06522 14723 ft 337 kts 66°
2026-04-26 06:44 39.59675 -105.04082 14445 ft 336 kts 66°
2026-04-26 06:45 39.60580 -105.01608 14117 ft 335 kts 65°
2026-04-26 06:45 39.61461 -104.99195 13801 ft 333 kts 65°
2026-04-26 06:45 39.62368 -104.96710 13467 ft 332 kts 65°
2026-04-26 06:45 39.63208 -104.94408 13159 ft 331 kts 66°
2026-04-26 06:46 39.64036 -104.92134 12970 ft 325 kts 66°
2026-04-26 06:46 39.64854 -104.89887 12946 ft 314 kts 66°
2026-04-26 06:46 39.65659 -104.87678 12938 ft 303 kts 66°
2026-04-26 06:46 39.66452 -104.85496 12949 ft 300 kts 66°
2026-04-26 06:47 39.67249 -104.83302 12948 ft 305 kts 66°
2026-04-26 06:47 39.68034 -104.81139 12950 ft 304 kts 66°
2026-04-26 06:47 39.68823 -104.78964 12948 ft 303 kts 66°
2026-04-26 06:47 39.69763 -104.76862 12951 ft 303 kts 52°
2026-04-26 06:48 39.71027 -104.75029 12955 ft 306 kts 46°
2026-04-26 06:48 39.72362 -104.73283 12953 ft 305 kts 45°
2026-04-26 06:48 39.73721 -104.71528 12954 ft 304 kts 45°
2026-04-26 06:48 39.75128 -104.69703 12717 ft 309 kts 45°
2026-04-26 06:49 39.76507 -104.67906 12382 ft 309 kts 45°
2026-04-26 06:49 39.77877 -104.66085 12037 ft 309 kts 50°
2026-04-26 06:49 39.79057 -104.64013 11692 ft 309 kts 57°
2026-04-26 06:49 39.80161 -104.61801 11339 ft 309 kts 58°
2026-04-26 06:50 39.81314 -104.59457 11017 ft 307 kts 58°
2026-04-26 06:50 39.82438 -104.57187 10965 ft 295 kts 58°
2026-04-26 06:50 39.83527 -104.55012 10960 ft 283 kts 54°
2026-04-26 06:50 39.84922 -104.53328 10956 ft 274 kts 29°
2026-04-26 06:51 39.86582 -104.52566 10962 ft 277 kts
2026-04-26 06:51 39.90064 -104.52240 10960 ft 269 kts 360°
2026-04-26 06:51 39.91729 -104.52204 10984 ft 258 kts 359°
2026-04-26 06:52 39.93314 -104.52183 10968 ft 259 kts 359°
2026-04-26 06:52 39.94933 -104.52171 10963 ft 259 kts 359°
2026-04-26 06:52 39.96622 -104.52161 10963 ft 258 kts 358°
2026-04-26 06:52 39.98368 -104.52151 10964 ft 260 kts 358°
2026-04-26 06:53 39.99951 -104.52140 10963 ft 260 kts 358°
2026-04-26 06:53 40.01551 -104.52129 10955 ft 260 kts 358°
2026-04-26 06:53 40.03151 -104.52119 10956 ft 260 kts 359°
2026-04-26 06:53 40.04743 -104.52107 10965 ft 260 kts 359°
2026-04-26 06:54 40.06350 -104.52097 10967 ft 261 kts 359°
2026-04-26 06:54 40.07984 -104.52085 10966 ft 261 kts 359°
2026-04-26 06:54 40.09590 -104.52074 10972 ft 262 kts 359°
2026-04-26 06:54 40.11198 -104.52063 10964 ft 261 kts 358°
2026-04-26 06:55 40.12819 -104.52052 10967 ft 262 kts 358°
2026-04-26 06:55 40.14434 -104.52041 10966 ft 262 kts 358°
2026-04-26 06:55 40.16057 -104.52029 10966 ft 262 kts 358°
2026-04-26 06:55 40.17686 -104.52019 10968 ft 262 kts 359°
2026-04-26 06:56 40.19471 -104.52009 10961 ft 261 kts 357°
2026-04-26 06:56 40.21131 -104.52458 10960 ft 258 kts 332°
2026-04-26 06:56 40.22369 -104.53722 10954 ft 253 kts 305°
2026-04-26 06:56 40.23059 -104.55537 10960 ft 246 kts 280°
2026-04-26 06:57 40.23100 -104.57497 10963 ft 240 kts 256°
2026-04-26 06:57 40.22537 -104.59264 10964 ft 236 kts 233°
2026-04-26 06:57 40.21494 -104.60610 10968 ft 236 kts 217°
2026-04-26 06:57 40.20304 -104.61751 10963 ft 236 kts 214°
2026-04-26 06:58 40.19143 -104.62840 10961 ft 235 kts 214°
2026-04-26 06:58 40.17958 -104.63940 10964 ft 235 kts 212°
2026-04-26 06:58 40.16628 -104.64728 10974 ft 234 kts 197°
2026-04-26 06:58 40.15226 -104.65140 10965 ft 236 kts 190°
2026-04-26 06:59 40.13713 -104.65402 10965 ft 235 kts 186°
2026-04-26 06:59 40.12204 -104.65562 10961 ft 235 kts 184°
2026-04-26 06:59 40.10721 -104.65659 10704 ft 241 kts 182°
2026-04-26 06:59 40.09185 -104.65717 10366 ft 238 kts 182°
2026-04-26 07:00 40.07690 -104.65756 10035 ft 234 kts 181°
2026-04-26 07:00 40.06255 -104.65784 9710 ft 231 kts 181°
2026-04-26 07:00 40.04796 -104.65807 9583 ft 224 kts 181°
2026-04-26 07:00 40.03250 -104.65826 9574 ft 231 kts 180°
2026-04-26 07:01 40.01825 -104.65841 9524 ft 231 kts 180°
2026-04-26 07:01 40.00285 -104.65856 9096 ft 234 kts 180°
2026-04-26 07:01 39.98863 -104.65871 8645 ft 216 kts 180°
2026-04-26 07:01 39.97521 -104.65887 8203 ft 205 kts 179°
2026-04-26 07:02 39.96187 -104.65901 7662 ft 201 kts 179°
2026-04-26 07:02 39.94851 -104.65916 7069 ft 200 kts 178°
2026-04-26 07:02 39.93549 -104.65929 6490 ft 195 kts 177°
2026-04-26 07:02 39.92362 -104.65945 6329 ft 172 kts 176°
2026-04-26 07:03 39.91318 -104.65942 6240 ft 161 kts 175°
2026-04-26 07:03 39.90317 -104.65942 6075 ft 154 kts 177°
2026-04-26 07:03 39.89339 -104.65970 5899 ft 149 kts 177°
2026-04-26 07:03 39.88388 -104.65989 5754 ft 148 kts 177°
2026-04-26 07:04 39.87449 -104.66013 5637 ft 147 kts 177°
2026-04-26 07:04 39.86515 -104.66022 5511 ft 148 kts 176°
2026-04-26 07:04 39.85552 -104.66024 5425 ft 141 kts 176°
2026-04-26 07:04 39.84736 -104.66007 5409 ft 105 kts 189°
2026-04-26 07:05 39.84117 -104.66032 5416 ft 96 kts 179°
2026-04-26 07:05 39.83295 -104.66050 5430 ft 154 kts 179°
2026-04-26 07:05 39.82293 -104.66064 5928 ft 161 kts 172°
2026-04-26 07:05 39.81279 -104.65947 6422 ft 161 kts 180°
2026-04-26 07:06 39.80251 -104.66074 6897 ft 159 kts 180°
2026-04-26 07:06 39.79249 -104.66129 7360 ft 162 kts 177°
2026-04-26 07:06 39.78211 -104.65862 7865 ft 166 kts 162°
2026-04-26 07:06 39.77188 -104.65453 8344 ft 171 kts 162°
2026-04-26 07:07 39.76101 -104.65017 8829 ft 178 kts 162°
2026-04-26 07:07 39.74950 -104.64555 9325 ft 176 kts 163°
2026-04-26 07:07 39.73798 -104.64092 9805 ft 178 kts 163°
2026-04-26 07:07 39.72603 -104.63613 9946 ft 182 kts 164°
2026-04-26 07:08 39.71475 -104.63286 9952 ft 177 kts 174°
2026-04-26 07:08 39.70365 -104.63252 9964 ft 187 kts 183°
2026-04-26 07:08 39.69069 -104.63464 9964 ft 226 kts 191°
2026-04-26 07:08 39.67663 -104.63992 9956 ft 240 kts 199°
2026-04-26 07:09 39.66308 -104.64689 9948 ft 241 kts 206°
2026-04-26 07:09 39.65157 -104.65932 9937 ft 243 kts 232°
2026-04-26 07:09 39.64570 -104.67760 9935 ft 249 kts 259°
2026-04-26 07:09 39.64652 -104.69835 9946 ft 254 kts 277°
2026-04-26 07:10 39.66009 -104.75809 9931 ft 258 kts 307°
2026-04-26 07:11 39.68904 -104.77634 9943 ft 263 kts 351°
2026-04-26 07:11 39.70536 -104.77863 9945 ft 264 kts 353°
2026-04-26 07:11 39.72165 -104.78070 9945 ft 263 kts 353°
2026-04-26 07:11 39.73781 -104.78276 9947 ft 264 kts 353°
2026-04-26 07:12 39.75436 -104.78488 9951 ft 265 kts 353°
2026-04-26 07:12 39.77088 -104.78700 9948 ft 265 kts 353°
2026-04-26 07:12 39.78738 -104.78916 9947 ft 264 kts 353°
2026-04-26 07:12 39.80378 -104.79131 9848 ft 268 kts 353°
2026-04-26 07:13 39.82031 -104.79352 9635 ft 269 kts 353°
2026-04-26 07:13 39.83698 -104.79581 9412 ft 267 kts 353°
2026-04-26 07:13 39.85344 -104.79814 9190 ft 266 kts 353°
2026-04-26 07:13 39.86997 -104.80055 8967 ft 265 kts 353°
2026-04-26 07:14 39.88724 -104.80242 8733 ft 263 kts 358°
2026-04-26 07:14 39.90517 -104.80328 8488 ft 262 kts 358°
2026-04-26 07:14 39.92318 -104.80412 8242 ft 261 kts 358°
2026-04-26 07:14 39.94118 -104.80502 7995 ft 259 kts 358°
2026-04-26 07:15 39.95894 -104.80597 7749 ft 258 kts 358°
2026-04-26 07:15 39.97658 -104.80695 7503 ft 257 kts 358°
2026-04-26 07:15 39.99384 -104.80650 7250 ft 253 kts 14°
2026-04-26 07:15 40.00926 -104.79662 6984 ft 246 kts 45°
2026-04-26 07:16 40.01945 -104.78029 6943 ft 229 kts 57°
2026-04-26 07:16 40.02751 -104.76418 6927 ft 210 kts 70°
2026-04-26 07:16 40.03081 -104.74633 6943 ft 203 kts 84°
2026-04-26 07:16 40.03188 -104.72917 6944 ft 200 kts 89°
2026-04-26 07:17 40.03249 -104.71243 6946 ft 198 kts 89°
2026-04-26 07:17 40.03265 -104.69563 6952 ft 199 kts 94°
2026-04-26 07:17 40.02882 -104.67968 6938 ft 195 kts 127°
2026-04-26 07:17 40.01899 -104.66937 6946 ft 193 kts 148°
2026-04-26 07:18 40.00771 -104.66125 6948 ft 194 kts 157°
2026-04-26 07:18 39.99583 -104.65817 6946 ft 181 kts 175°
2026-04-26 07:18 39.98451 -104.65844 6947 ft 169 kts 179°
2026-04-26 07:18 39.97368 -104.65881 6950 ft 164 kts 178°
2026-04-26 07:19 39.96275 -104.65895 6951 ft 162 kts 177°
2026-04-26 07:19 39.95155 -104.65907 6956 ft 160 kts 178°
2026-04-26 07:19 39.94065 -104.65923 6949 ft 148 kts 178°
2026-04-26 07:19 39.93019 -104.65936 6767 ft 153 kts 177°
2026-04-26 07:20 39.91998 -104.65947 6586 ft 151 kts 177°
2026-04-26 07:20 39.91024 -104.65959 6404 ft 150 kts 176°
2026-04-26 07:20 39.90075 -104.65969 6215 ft 150 kts 176°
2026-04-26 07:20 39.89130 -104.65981 6035 ft 149 kts 176°
2026-04-26 07:21 39.88191 -104.65992 5847 ft 143 kts 176°
2026-04-26 07:21 39.87289 -104.66002 5674 ft 139 kts 176°
2026-04-26 07:21 39.86405 -104.66009 5496 ft 137 kts 176°
2026-04-26 07:21 39.85557 -104.66028 5425 ft 130 kts 177°
2026-04-26 07:22 39.84747 -104.66028 5409 ft 110 kts 179°
2026-04-26 07:22 39.84267 -104.66051 5410 ft 36 kts 192°
2026-04-26 07:22 39.84088 -104.66147 5411 ft 25 kts 209°
2026-04-26 07:22 39.84039 -104.66251 5407 ft 15 kts 322°
2026-04-26 07:23 39.84211 -104.66248 5403 ft 35 kts
2026-04-26 07:23 39.84448 -104.66245 5399 ft 24 kts 359°
2026-04-26 07:23 39.84627 -104.66248 5402 ft 31 kts
2026-04-26 07:23 39.84846 -104.66245 5406 ft 35 kts
2026-04-26 07:24 39.85084 -104.66241 5416 ft 38 kts
2026-04-26 07:24 39.85305 -104.66238 5423 ft 15 kts 359°
2026-04-26 07:24 39.85429 -104.66237 5426 ft 22 kts
2026-04-26 07:24 39.85564 -104.66267 5431 ft 20 kts 314°
2026-04-26 07:25 39.85654 -104.66373 5435 ft 20 kts 316°
2026-04-26 07:25 39.85710 -104.66483 5435 ft 14 kts 346°
2026-04-26 07:25 39.85841 -104.66489 5435 ft 23 kts 360°
2026-04-26 07:25 39.86016 -104.66494 5432 ft 26 kts 348°
2026-04-26 07:26 39.86137 -104.66569 5428 ft 12 kts 343°
2026-04-26 07:26 39.86235 -104.66580 5424 ft 15 kts 359°
2026-04-26 07:26 39.86324 -104.66563 5421 ft 8 kts 56°
2026-04-26 07:26 39.86328 -104.66518 5422 ft 4 kts 98°
2026-04-26 07:27 39.86327 -104.66488 5422 ft 0 kts 90°